Year,Month,Day,Hour,Minute,Value (Times are PST for windspeed in km/hr)
2007,04,09,00,00,4.10
2007,04,09,00,01,2.50
2007,04,09,00,02,0.80
2007,04,09,00,03,0.80
2007,04,09,00,04,2.00
2007,04,09,00,05,0.90
2007,04,09,00,06,1.80
2007,04,09,00,07,1.50
2007,04,09,00,08,3.10
2007,04,09,00,09,4.20
2007,04,09,00,10,4.30
2007,04,09,00,11,3.70
2007,04,09,00,12,3.50
2007,04,09,00,13,3.10
2007,04,09,00,14,2.40
2007,04,09,00,15,0.90
2007,04,09,00,16,1.90
2007,04,09,00,17,2.90
2007,04,09,00,18,2.70
2007,04,09,00,19,1.80
2007,04,09,00,20,2.40
2007,04,09,00,21,1.40
2007,04,09,00,22,0.70
2007,04,09,00,23,0.20
2007,04,09,00,24,0.20
2007,04,09,00,25,0.00
2007,04,09,00,26,0.30
2007,04,09,00,27,0.00
2007,04,09,00,28,0.00
2007,04,09,00,29,0.00
2007,04,09,00,30,0.70
2007,04,09,00,31,1.40
2007,04,09,00,32,0.00
2007,04,09,00,33,0.00
2007,04,09,00,34,1.40
2007,04,09,00,35,0.40
2007,04,09,00,36,0.10
2007,04,09,00,37,0.00
2007,04,09,00,38,0.00
2007,04,09,00,39,0.00
2007,04,09,00,40,0.00
2007,04,09,00,41,0.00
2007,04,09,00,42,1.30
2007,04,09,00,43,0.00
2007,04,09,00,44,0.80
2007,04,09,00,45,1.90
2007,04,09,00,46,1.70
2007,04,09,00,47,1.70
2007,04,09,00,48,2.20
2007,04,09,00,49,0.30
2007,04,09,00,50,0.00
2007,04,09,00,51,0.00
2007,04,09,00,52,0.30
2007,04,09,00,53,0.10
2007,04,09,00,54,0.00
2007,04,09,00,55,0.00
2007,04,09,00,56,0.00
2007,04,09,00,57,0.00
2007,04,09,00,58,0.00
2007,04,09,00,59,0.00
2007,04,09,01,00,0.00
2007,04,09,01,01,0.00
2007,04,09,01,02,0.00
2007,04,09,01,03,0.00
2007,04,09,01,04,0.00
2007,04,09,01,05,0.00
2007,04,09,01,06,0.00
2007,04,09,01,07,0.00
2007,04,09,01,08,0.00
2007,04,09,01,09,0.30
2007,04,09,01,10,0.10
2007,04,09,01,11,0.00
2007,04,09,01,12,0.00
2007,04,09,01,13,0.00
2007,04,09,01,14,0.00
2007,04,09,01,15,0.00
2007,04,09,01,16,0.00
2007,04,09,01,17,0.00
2007,04,09,01,18,0.00
2007,04,09,01,19,0.00
2007,04,09,01,20,0.00
2007,04,09,01,21,0.00
2007,04,09,01,22,0.00
2007,04,09,01,23,0.00
2007,04,09,01,24,0.00
2007,04,09,01,25,0.00
2007,04,09,01,26,0.00
2007,04,09,01,27,0.00
2007,04,09,01,28,0.00
2007,04,09,01,29,0.00
2007,04,09,01,30,0.00
2007,04,09,01,31,0.00
2007,04,09,01,32,0.00
2007,04,09,01,33,0.00
2007,04,09,01,34,0.00
2007,04,09,01,35,0.00
2007,04,09,01,36,0.00
2007,04,09,01,37,0.00
2007,04,09,01,38,0.00
2007,04,09,01,39,0.00
2007,04,09,01,40,0.10
2007,04,09,01,41,0.00
2007,04,09,01,42,0.10
2007,04,09,01,43,0.00
2007,04,09,01,44,0.00
2007,04,09,01,45,0.00
2007,04,09,01,46,0.00
2007,04,09,01,47,0.90
2007,04,09,01,48,0.00
2007,04,09,01,49,0.00
2007,04,09,01,50,0.60
2007,04,09,01,51,1.20
2007,04,09,01,52,0.60
2007,04,09,01,53,0.00
2007,04,09,01,54,0.00
2007,04,09,01,55,0.00
2007,04,09,01,56,0.00
2007,04,09,01,57,0.00
2007,04,09,01,58,0.00
2007,04,09,01,59,0.00
2007,04,09,02,00,1.10
2007,04,09,02,01,0.80
2007,04,09,02,02,0.00
2007,04,09,02,03,2.60
2007,04,09,02,04,6.80
2007,04,09,02,05,5.70
2007,04,09,02,06,2.10
2007,04,09,02,07,1.50
2007,04,09,02,08,1.10
2007,04,09,02,09,1.00
2007,04,09,02,10,3.00
2007,04,09,02,11,1.50
2007,04,09,02,12,0.80
2007,04,09,02,13,0.00
2007,04,09,02,14,0.40
2007,04,09,02,15,2.30
2007,04,09,02,16,2.30
2007,04,09,02,17,1.30
2007,04,09,02,18,2.20
2007,04,09,02,19,2.80
2007,04,09,02,20,3.50
2007,04,09,02,21,2.40
2007,04,09,02,22,2.20
2007,04,09,02,23,4.30
2007,04,09,02,24,5.40
2007,04,09,02,25,5.60
2007,04,09,02,26,4.40
2007,04,09,02,27,5.00
2007,04,09,02,28,6.00
2007,04,09,02,29,4.60
2007,04,09,02,30,4.50
2007,04,09,02,31,7.00
2007,04,09,02,32,6.00
2007,04,09,02,33,6.20
2007,04,09,02,34,11.40
2007,04,09,02,35,10.10
2007,04,09,02,36,11.20
2007,04,09,02,37,8.60
2007,04,09,02,38,8.80
2007,04,09,02,39,7.70
2007,04,09,02,40,5.00
2007,04,09,02,41,5.10
2007,04,09,02,42,7.30
2007,04,09,02,43,7.20
2007,04,09,02,44,4.60
2007,04,09,02,45,4.50
2007,04,09,02,46,5.40
2007,04,09,02,47,4.80
2007,04,09,02,48,2.90
2007,04,09,02,49,6.00
2007,04,09,02,50,6.00
2007,04,09,02,51,5.10
2007,04,09,02,52,5.80
2007,04,09,02,53,7.20
2007,04,09,02,54,6.60
2007,04,09,02,55,4.50
2007,04,09,02,56,1.10
2007,04,09,02,57,2.90
2007,04,09,02,58,3.60
2007,04,09,02,59,3.20
2007,04,09,03,00,3.40
2007,04,09,03,01,4.00
2007,04,09,03,02,1.60
2007,04,09,03,03,1.50
2007,04,09,03,04,3.90
2007,04,09,03,05,5.00
2007,04,09,03,06,2.80
2007,04,09,03,07,5.80
2007,04,09,03,08,6.90
2007,04,09,03,09,6.00
2007,04,09,03,10,5.80
2007,04,09,03,11,4.60
2007,04,09,03,12,6.80
2007,04,09,03,13,3.60
2007,04,09,03,14,2.40
2007,04,09,03,15,5.70
2007,04,09,03,16,4.10
2007,04,09,03,17,3.10
2007,04,09,03,18,5.70
2007,04,09,03,19,5.20
2007,04,09,03,20,2.20
2007,04,09,03,21,5.40
2007,04,09,03,22,3.40
2007,04,09,03,23,2.60
2007,04,09,03,24,5.40
2007,04,09,03,25,2.10
2007,04,09,03,26,2.30
2007,04,09,03,27,4.70
2007,04,09,03,28,4.60
2007,04,09,03,29,5.60
2007,04,09,03,30,5.60
2007,04,09,03,31,3.90
2007,04,09,03,32,4.90
2007,04,09,03,33,5.80
2007,04,09,03,34,3.10
2007,04,09,03,35,2.80
2007,04,09,03,36,3.50
2007,04,09,03,37,1.40
2007,04,09,03,38,0.80
2007,04,09,03,39,1.50
2007,04,09,03,40,2.40
2007,04,09,03,41,5.10
2007,04,09,03,42,2.00
2007,04,09,03,43,1.50
2007,04,09,03,44,0.70
2007,04,09,03,45,1.40
2007,04,09,03,46,2.20
2007,04,09,03,47,2.30
2007,04,09,03,48,2.40
2007,04,09,03,49,2.70
2007,04,09,03,50,4.40
2007,04,09,03,51,3.80
2007,04,09,03,52,4.30
2007,04,09,03,53,5.10
2007,04,09,03,54,5.20
2007,04,09,03,55,6.90
2007,04,09,03,56,5.40
2007,04,09,03,57,5.60
2007,04,09,03,58,5.60
2007,04,09,03,59,4.70
2007,04,09,04,00,5.80
2007,04,09,04,01,4.90
2007,04,09,04,02,4.10
2007,04,09,04,03,4.90
2007,04,09,04,04,6.40
2007,04,09,04,05,5.10
2007,04,09,04,06,6.30
2007,04,09,04,07,6.30
2007,04,09,04,08,7.50
2007,04,09,04,09,4.30
2007,04,09,04,10,3.60
2007,04,09,04,11,4.90
2007,04,09,04,12,4.30
2007,04,09,04,13,2.30
2007,04,09,04,14,4.80
2007,04,09,04,15,4.70
2007,04,09,04,16,3.80
2007,04,09,04,17,4.00
2007,04,09,04,18,3.90
2007,04,09,04,19,4.30
2007,04,09,04,20,6.20
2007,04,09,04,21,7.20
2007,04,09,04,22,5.10
2007,04,09,04,23,3.40
2007,04,09,04,24,2.10
2007,04,09,04,25,5.90
2007,04,09,04,26,5.30
2007,04,09,04,27,2.30
2007,04,09,04,28,8.20
2007,04,09,04,29,5.80
2007,04,09,04,30,3.20
2007,04,09,04,31,4.30
2007,04,09,04,32,4.30
2007,04,09,04,33,8.10
2007,04,09,04,34,5.30
2007,04,09,04,35,8.50
2007,04,09,04,36,3.10
2007,04,09,04,37,6.50
2007,04,09,04,38,5.00
2007,04,09,04,39,6.70
2007,04,09,04,40,6.40
2007,04,09,04,41,8.00
2007,04,09,04,42,8.10
2007,04,09,04,43,6.20
2007,04,09,04,44,6.70
2007,04,09,04,45,2.00
2007,04,09,04,46,0.20
2007,04,09,04,47,1.00
2007,04,09,04,48,4.60
2007,04,09,04,49,4.70
2007,04,09,04,50,9.70
2007,04,09,04,51,13.60
2007,04,09,04,52,8.90
2007,04,09,04,53,8.90
2007,04,09,04,54,8.20
2007,04,09,04,55,14.40
2007,04,09,04,56,17.50
2007,04,09,04,57,15.30
2007,04,09,04,58,7.70
2007,04,09,04,59,1.80
2007,04,09,05,00,7.20
2007,04,09,05,01,11.20
2007,04,09,05,02,8.50
2007,04,09,05,03,9.10
2007,04,09,05,04,13.00
2007,04,09,05,05,15.60
2007,04,09,05,06,13.50
2007,04,09,05,07,11.60
2007,04,09,05,08,10.00
2007,04,09,05,09,15.00
2007,04,09,05,10,13.90
2007,04,09,05,11,17.20
2007,04,09,05,12,18.00
2007,04,09,05,13,16.70
2007,04,09,05,14,10.90
2007,04,09,05,15,15.80
2007,04,09,05,16,14.10
2007,04,09,05,17,11.70
2007,04,09,05,18,14.60
2007,04,09,05,19,9.80
2007,04,09,05,20,14.50
2007,04,09,05,21,11.60
2007,04,09,05,22,10.40
2007,04,09,05,23,13.60
2007,04,09,05,24,15.00
2007,04,09,05,25,15.30
2007,04,09,05,26,16.30
2007,04,09,05,27,23.30
2007,04,09,05,28,15.70
2007,04,09,05,29,12.60
2007,04,09,05,30,18.50
2007,04,09,05,31,15.50
2007,04,09,05,32,13.10
2007,04,09,05,33,10.10
2007,04,09,05,34,14.60
2007,04,09,05,35,22.00
2007,04,09,05,36,14.60
2007,04,09,05,37,16.50
2007,04,09,05,38,20.80
2007,04,09,05,39,16.50
2007,04,09,05,40,12.30
2007,04,09,05,41,14.30
2007,04,09,05,42,17.80
2007,04,09,05,43,18.60
2007,04,09,05,44,16.10
2007,04,09,05,45,17.60
2007,04,09,05,46,13.80
2007,04,09,05,47,14.40
2007,04,09,05,48,18.40
2007,04,09,05,49,15.80
2007,04,09,05,50,17.50
2007,04,09,05,51,19.50
2007,04,09,05,52,19.80
2007,04,09,05,53,17.00
2007,04,09,05,54,24.10
2007,04,09,05,55,15.90
2007,04,09,05,56,24.10
2007,04,09,05,57,18.50
2007,04,09,05,58,19.60
2007,04,09,05,59,24.00
2007,04,09,06,00,23.50
2007,04,09,06,01,18.10
2007,04,09,06,02,23.00
2007,04,09,06,03,21.50
2007,04,09,06,04,20.80
2007,04,09,06,05,18.70
2007,04,09,06,06,25.60
2007,04,09,06,07,21.70
2007,04,09,06,08,11.80
2007,04,09,06,09,16.60
2007,04,09,06,10,19.40
2007,04,09,06,11,19.80
2007,04,09,06,12,28.30
2007,04,09,06,13,22.50
2007,04,09,06,14,22.40
2007,04,09,06,15,21.50
2007,04,09,06,16,23.30
2007,04,09,06,17,22.50
2007,04,09,06,18,19.40
2007,04,09,06,19,20.80
2007,04,09,06,20,19.80
2007,04,09,06,21,13.90
2007,04,09,06,22,22.00
2007,04,09,06,23,18.30
2007,04,09,06,24,21.70
2007,04,09,06,25,16.40
2007,04,09,06,26,19.10
2007,04,09,06,27,19.20
2007,04,09,06,28,18.30
2007,04,09,06,29,24.40
2007,04,09,06,30,18.40
2007,04,09,06,31,21.00
2007,04,09,06,32,23.30
2007,04,09,06,33,18.00
2007,04,09,06,34,15.60
2007,04,09,06,35,16.70
2007,04,09,06,36,16.80
2007,04,09,06,37,13.50
2007,04,09,06,38,10.40
2007,04,09,06,39,19.90
2007,04,09,06,40,22.30
2007,04,09,06,41,14.80
2007,04,09,06,42,11.50
2007,04,09,06,43,19.40
2007,04,09,06,44,18.50
2007,04,09,06,45,12.20
2007,04,09,06,46,12.60
2007,04,09,06,47,17.70
2007,04,09,06,48,18.90
2007,04,09,06,49,22.60
2007,04,09,06,50,21.00
2007,04,09,06,51,15.90
2007,04,09,06,52,24.70
2007,04,09,06,53,25.20
2007,04,09,06,54,17.80
2007,04,09,06,55,16.20
2007,04,09,06,56,28.20
2007,04,09,06,57,22.60
2007,04,09,06,58,19.50
2007,04,09,06,59,26.10
2007,04,09,07,00,22.20
2007,04,09,07,01,19.30
2007,04,09,07,02,21.10
2007,04,09,07,03,31.10
2007,04,09,07,04,20.80
2007,04,09,07,05,24.30
2007,04,09,07,06,21.70
2007,04,09,07,07,21.30
2007,04,09,07,08,27.70
2007,04,09,07,09,24.50
2007,04,09,07,10,25.70
2007,04,09,07,11,31.50
2007,04,09,07,12,26.30
2007,04,09,07,13,24.20
2007,04,09,07,14,33.20
2007,04,09,07,15,23.90
2007,04,09,07,16,26.40
2007,04,09,07,17,31.00
2007,04,09,07,18,25.80
2007,04,09,07,19,31.50
2007,04,09,07,20,26.20
2007,04,09,07,21,20.80
2007,04,09,07,22,22.80
2007,04,09,07,23,21.30
2007,04,09,07,24,23.00
2007,04,09,07,25,21.80
2007,04,09,07,26,24.10
2007,04,09,07,27,35.20
2007,04,09,07,28,26.00
2007,04,09,07,29,21.80
2007,04,09,07,30,22.50
2007,04,09,07,31,24.40
2007,04,09,07,32,17.10
2007,04,09,07,33,23.50
2007,04,09,07,34,28.20
2007,04,09,07,35,20.90
2007,04,09,07,36,21.80
2007,04,09,07,37,24.20
2007,04,09,07,38,23.20
2007,04,09,07,39,17.30
2007,04,09,07,40,18.30
2007,04,09,07,41,19.10
2007,04,09,07,42,12.50
2007,04,09,07,43,10.20
2007,04,09,07,44,14.30
2007,04,09,07,45,19.50
2007,04,09,07,46,24.30
2007,04,09,07,47,19.60
2007,04,09,07,48,27.90
2007,04,09,07,49,16.70
2007,04,09,07,50,17.80
2007,04,09,07,51,28.60
2007,04,09,07,52,31.70
2007,04,09,07,53,23.50
2007,04,09,07,54,12.20
2007,04,09,07,55,22.90
2007,04,09,07,56,20.70
2007,04,09,07,57,24.50
2007,04,09,07,58,24.90
2007,04,09,07,59,19.20
2007,04,09,08,00,24.60
2007,04,09,08,01,20.20
2007,04,09,08,02,23.50
2007,04,09,08,03,18.80
2007,04,09,08,04,14.70
2007,04,09,08,05,22.70
2007,04,09,08,06,18.30
2007,04,09,08,07,14.30
2007,04,09,08,08,22.90
2007,04,09,08,09,18.60
2007,04,09,08,10,20.00
2007,04,09,08,11,19.90
2007,04,09,08,12,15.70
2007,04,09,08,13,23.30
2007,04,09,08,14,21.50
2007,04,09,08,15,19.10
2007,04,09,08,16,12.10
2007,04,09,08,17,25.10
2007,04,09,08,18,22.90
2007,04,09,08,19,16.40
2007,04,09,08,20,23.10
2007,04,09,08,21,20.80
2007,04,09,08,22,17.90
2007,04,09,08,23,19.40
2007,04,09,08,24,20.00
2007,04,09,08,25,21.20
2007,04,09,08,26,19.20
2007,04,09,08,27,17.90
2007,04,09,08,28,21.20
2007,04,09,08,29,21.80
2007,04,09,08,30,16.90
2007,04,09,08,31,15.50
2007,04,09,08,32,24.30
2007,04,09,08,33,15.90
2007,04,09,08,34,14.50
2007,04,09,08,35,16.70
2007,04,09,08,36,32.70
2007,04,09,08,37,19.60
2007,04,09,08,38,20.50
2007,04,09,08,39,23.90
2007,04,09,08,40,27.70
2007,04,09,08,41,26.60
2007,04,09,08,42,19.20
2007,04,09,08,43,17.60
2007,04,09,08,44,14.10
2007,04,09,08,45,17.30
2007,04,09,08,46,20.50
2007,04,09,08,47,15.90
2007,04,09,08,48,21.70
2007,04,09,08,49,25.20
2007,04,09,08,50,28.30
2007,04,09,08,51,20.20
2007,04,09,08,52,22.30
2007,04,09,08,53,20.40
2007,04,09,08,54,23.40
2007,04,09,08,55,18.20
2007,04,09,08,56,16.90
2007,04,09,08,57,19.70
2007,04,09,08,58,19.90
2007,04,09,08,59,26.30
2007,04,09,09,00,15.50
2007,04,09,09,01,17.40
2007,04,09,09,02,18.50
2007,04,09,09,03,18.70
2007,04,09,09,04,22.30
2007,04,09,09,05,17.60
2007,04,09,09,06,18.30
2007,04,09,09,07,21.50
2007,04,09,09,08,18.20
2007,04,09,09,09,14.60
2007,04,09,09,10,19.10
2007,04,09,09,11,23.00
2007,04,09,09,12,16.20
2007,04,09,09,13,20.20
2007,04,09,09,14,15.90
2007,04,09,09,15,15.80
2007,04,09,09,16,14.60
2007,04,09,09,17,10.10
2007,04,09,09,18,10.70
2007,04,09,09,19,11.70
2007,04,09,09,20,11.40
2007,04,09,09,21,10.60
2007,04,09,09,22,16.30
2007,04,09,09,23,18.80
2007,04,09,09,24,15.20
2007,04,09,09,25,15.20
2007,04,09,09,26,18.00
2007,04,09,09,27,24.50
2007,04,09,09,28,17.50
2007,04,09,09,29,19.00
2007,04,09,09,30,17.80
2007,04,09,09,31,28.70
2007,04,09,09,32,19.10
2007,04,09,09,33,18.20
2007,04,09,09,34,13.30
2007,04,09,09,35,14.70
2007,04,09,09,36,23.20
2007,04,09,09,37,20.30
2007,04,09,09,38,17.60
2007,04,09,09,39,12.80
2007,04,09,09,40,9.90
2007,04,09,09,41,12.60
2007,04,09,09,42,24.90
2007,04,09,09,43,18.10
2007,04,09,09,44,19.20
2007,04,09,09,45,17.60
2007,04,09,09,46,20.60
2007,04,09,09,47,22.80
2007,04,09,09,48,25.10
2007,04,09,09,49,18.90
2007,04,09,09,50,24.90
2007,04,09,09,51,12.90
2007,04,09,09,52,21.30
2007,04,09,09,53,22.20
2007,04,09,09,54,16.00
2007,04,09,09,55,26.00
2007,04,09,09,56,26.30
2007,04,09,09,57,19.70
2007,04,09,09,58,18.00
2007,04,09,09,59,20.00
2007,04,09,10,00,16.50
2007,04,09,10,01,20.00
2007,04,09,10,02,20.20
2007,04,09,10,03,19.90
2007,04,09,10,04,21.40
2007,04,09,10,05,20.60
2007,04,09,10,06,26.20
2007,04,09,10,07,21.20
2007,04,09,10,08,18.40
2007,04,09,10,09,20.40
2007,04,09,10,10,15.60
2007,04,09,10,11,21.10
2007,04,09,10,12,27.40
2007,04,09,10,13,16.00
2007,04,09,10,14,19.50
2007,04,09,10,15,33.30
2007,04,09,10,16,32.80
2007,04,09,10,17,29.20
2007,04,09,10,18,21.20
2007,04,09,10,19,20.20
2007,04,09,10,20,22.50
2007,04,09,10,21,21.30
2007,04,09,10,22,22.60
2007,04,09,10,23,22.20
2007,04,09,10,24,28.00
2007,04,09,10,25,28.70
2007,04,09,10,26,28.50
2007,04,09,10,27,33.10
2007,04,09,10,28,27.10
2007,04,09,10,29,19.00
2007,04,09,10,30,32.60
2007,04,09,10,31,21.30
2007,04,09,10,32,27.10
2007,04,09,10,33,30.70
2007,04,09,10,34,19.70
2007,04,09,10,35,29.40
2007,04,09,10,36,28.60
2007,04,09,10,37,23.00
2007,04,09,10,38,20.80
2007,04,09,10,39,25.50
2007,04,09,10,40,25.10
2007,04,09,10,41,27.40
2007,04,09,10,42,21.40
2007,04,09,10,43,18.60
2007,04,09,10,44,35.10
2007,04,09,10,45,20.80
2007,04,09,10,46,25.30
2007,04,09,10,47,31.20
2007,04,09,10,48,28.90
2007,04,09,10,49,30.70
2007,04,09,10,50,25.70
2007,04,09,10,51,17.00
2007,04,09,10,52,23.30
2007,04,09,10,53,24.30
2007,04,09,10,54,19.00
2007,04,09,10,55,23.20
2007,04,09,10,56,21.00
2007,04,09,10,57,24.10
2007,04,09,10,58,19.50
2007,04,09,10,59,16.60
2007,04,09,11,00,25.20
2007,04,09,11,01,25.20
2007,04,09,11,02,23.90
2007,04,09,11,03,25.20
2007,04,09,11,04,34.70
2007,04,09,11,05,27.00
2007,04,09,11,06,28.30
2007,04,09,11,07,33.90
2007,04,09,11,08,32.10
2007,04,09,11,09,28.80
2007,04,09,11,10,31.90
2007,04,09,11,11,21.90
2007,04,09,11,12,22.80
2007,04,09,11,13,24.80
2007,04,09,11,14,24.30
2007,04,09,11,15,23.50
2007,04,09,11,16,18.60
2007,04,09,11,17,24.70
2007,04,09,11,18,21.80
2007,04,09,11,19,29.60
2007,04,09,11,20,24.50
2007,04,09,11,21,17.60
2007,04,09,11,22,23.20
2007,04,09,11,23,20.80
2007,04,09,11,24,18.90
2007,04,09,11,25,22.00
2007,04,09,11,26,21.50
2007,04,09,11,27,16.00
2007,04,09,11,28,17.80
2007,04,09,11,29,24.50
2007,04,09,11,30,20.40
2007,04,09,11,31,20.00
2007,04,09,11,32,16.90
2007,04,09,11,33,17.90
2007,04,09,11,34,18.10
2007,04,09,11,35,27.00
2007,04,09,11,36,33.40
2007,04,09,11,37,18.80
2007,04,09,11,38,23.90
2007,04,09,11,39,25.90
2007,04,09,11,40,29.00
2007,04,09,11,41,23.20
2007,04,09,11,42,21.70
2007,04,09,11,43,16.90
2007,04,09,11,44,13.90
2007,04,09,11,45,9.10
2007,04,09,11,46,8.40
2007,04,09,11,47,17.40
2007,04,09,11,48,14.00
2007,04,09,11,49,14.90
2007,04,09,11,50,16.30
2007,04,09,11,51,13.90
2007,04,09,11,52,10.80
2007,04,09,11,53,11.90
2007,04,09,11,54,14.00
2007,04,09,11,55,19.80
2007,04,09,11,56,23.70
2007,04,09,11,57,16.90
2007,04,09,11,58,9.00
2007,04,09,11,59,12.40
2007,04,09,12,00,23.30
2007,04,09,12,01,21.60
2007,04,09,12,02,14.90
2007,04,09,12,03,12.20
2007,04,09,12,04,11.70
2007,04,09,12,05,27.00
2007,04,09,12,06,26.10
2007,04,09,12,07,22.50
2007,04,09,12,08,26.20
2007,04,09,12,09,23.00
2007,04,09,12,10,24.00
2007,04,09,12,11,25.20
2007,04,09,12,12,22.40
2007,04,09,12,13,26.00
2007,04,09,12,14,17.20
2007,04,09,12,15,20.40
2007,04,09,12,16,19.10
2007,04,09,12,17,13.20
2007,04,09,12,18,19.10
2007,04,09,12,19,22.40
2007,04,09,12,20,14.30
2007,04,09,12,21,16.20
2007,04,09,12,22,22.00
2007,04,09,12,23,20.70
2007,04,09,12,24,22.10
2007,04,09,12,25,24.00
2007,04,09,12,26,20.40
2007,04,09,12,27,26.00
2007,04,09,12,28,23.60
2007,04,09,12,29,27.50
2007,04,09,12,30,20.50
2007,04,09,12,31,21.80
2007,04,09,12,32,25.50
2007,04,09,12,33,28.50
2007,04,09,12,34,30.20
2007,04,09,12,35,27.00
2007,04,09,12,36,25.50
2007,04,09,12,37,28.90
2007,04,09,12,38,30.70
2007,04,09,12,39,29.50
2007,04,09,12,40,26.60
2007,04,09,12,41,33.80
2007,04,09,12,42,26.10
2007,04,09,12,43,29.10
2007,04,09,12,44,27.90
2007,04,09,12,45,27.00
2007,04,09,12,46,23.40
2007,04,09,12,47,15.60
2007,04,09,12,48,15.80
2007,04,09,12,49,23.50
2007,04,09,12,50,21.60
2007,04,09,12,51,17.20
2007,04,09,12,52,30.30
2007,04,09,12,53,26.00
2007,04,09,12,54,25.20
2007,04,09,12,55,23.10
2007,04,09,12,56,23.90
2007,04,09,12,57,28.70
2007,04,09,12,58,23.70
2007,04,09,12,59,22.80
2007,04,09,13,00,22.60
2007,04,09,13,01,31.90
2007,04,09,13,02,27.70
2007,04,09,13,03,31.20
2007,04,09,13,04,19.60
2007,04,09,13,05,22.50
2007,04,09,13,06,18.30
2007,04,09,13,07,20.80
2007,04,09,13,08,22.10
2007,04,09,13,09,21.90
2007,04,09,13,10,21.70
2007,04,09,13,11,29.20
2007,04,09,13,12,25.20
2007,04,09,13,13,32.00
2007,04,09,13,14,25.80
2007,04,09,13,15,21.10
2007,04,09,13,16,20.30
2007,04,09,13,17,27.50
2007,04,09,13,18,19.10
2007,04,09,13,19,25.00
2007,04,09,13,20,23.90
2007,04,09,13,21,20.60
2007,04,09,13,22,27.70
2007,04,09,13,23,29.90
2007,04,09,13,24,19.00
2007,04,09,13,25,14.70
2007,04,09,13,26,22.00
2007,04,09,13,27,20.70
2007,04,09,13,28,28.00
2007,04,09,13,29,26.10
2007,04,09,13,30,31.50
2007,04,09,13,31,34.90
2007,04,09,13,32,24.70
2007,04,09,13,33,26.60
2007,04,09,13,34,25.00
2007,04,09,13,35,26.30
2007,04,09,13,36,22.00
2007,04,09,13,37,20.80
2007,04,09,13,38,21.60
2007,04,09,13,39,20.80
2007,04,09,13,40,25.10
2007,04,09,13,41,20.80
2007,04,09,13,42,17.40
2007,04,09,13,43,23.70
2007,04,09,13,44,24.10
2007,04,09,13,45,25.50
2007,04,09,13,46,27.40
2007,04,09,13,47,24.60
2007,04,09,13,48,25.60
2007,04,09,13,49,18.80
2007,04,09,13,50,15.90
2007,04,09,13,51,16.00
2007,04,09,13,52,13.20
2007,04,09,13,53,13.90
2007,04,09,13,54,30.80
2007,04,09,13,55,24.50
2007,04,09,13,56,22.00
2007,04,09,13,57,24.70
2007,04,09,13,58,24.80
2007,04,09,13,59,27.80
2007,04,09,14,00,24.20
2007,04,09,14,01,28.40
2007,04,09,14,02,24.70
2007,04,09,14,03,19.70
2007,04,09,14,04,21.50
2007,04,09,14,05,30.50
2007,04,09,14,06,26.10
2007,04,09,14,07,25.10
2007,04,09,14,08,28.30
2007,04,09,14,09,24.10
2007,04,09,14,10,20.40
2007,04,09,14,11,27.80
2007,04,09,14,12,34.60
2007,04,09,14,13,29.00
2007,04,09,14,14,25.30
2007,04,09,14,15,27.00
2007,04,09,14,16,19.80
2007,04,09,14,17,19.20
2007,04,09,14,18,19.60
2007,04,09,14,19,23.50
2007,04,09,14,20,16.00
2007,04,09,14,21,22.10
2007,04,09,14,22,26.30
2007,04,09,14,23,27.60
2007,04,09,14,24,33.50
2007,04,09,14,25,29.90
2007,04,09,14,26,31.40
2007,04,09,14,27,41.40
2007,04,09,14,28,33.70
2007,04,09,14,29,34.80
2007,04,09,14,30,28.50
2007,04,09,14,31,34.10
2007,04,09,14,32,31.90
2007,04,09,14,33,34.20
2007,04,09,14,34,26.70
2007,04,09,14,35,23.00
2007,04,09,14,36,20.60
2007,04,09,14,37,17.60
2007,04,09,14,38,23.30
2007,04,09,14,39,17.20
2007,04,09,14,40,13.10
2007,04,09,14,41,18.50
2007,04,09,14,42,11.30
2007,04,09,14,43,14.70
2007,04,09,14,44,15.20
2007,04,09,14,45,17.30
2007,04,09,14,46,17.00
2007,04,09,14,47,15.10
2007,04,09,14,48,10.60
2007,04,09,14,49,23.20
2007,04,09,14,50,24.60
2007,04,09,14,51,27.00
2007,04,09,14,52,22.80
2007,04,09,14,53,26.90
2007,04,09,14,54,31.80
2007,04,09,14,55,37.40
2007,04,09,14,56,38.50
2007,04,09,14,57,37.50
2007,04,09,14,58,36.00
2007,04,09,14,59,45.50
2007,04,09,15,00,32.00
2007,04,09,15,01,35.70
2007,04,09,15,02,30.90
2007,04,09,15,03,18.90
2007,04,09,15,04,28.00
2007,04,09,15,05,24.00
2007,04,09,15,06,29.20
2007,04,09,15,07,22.40
2007,04,09,15,08,26.30
2007,04,09,15,09,17.60
2007,04,09,15,10,17.10
2007,04,09,15,11,25.70
2007,04,09,15,12,20.20
2007,04,09,15,13,14.20
2007,04,09,15,14,14.60
2007,04,09,15,15,18.00
2007,04,09,15,16,16.30
2007,04,09,15,17,24.00
2007,04,09,15,18,23.00
2007,04,09,15,19,25.50
2007,04,09,15,20,19.50
2007,04,09,15,21,14.40
2007,04,09,15,22,11.40
2007,04,09,15,23,19.30
2007,04,09,15,24,29.90
2007,04,09,15,25,25.60
2007,04,09,15,26,22.90
2007,04,09,15,27,28.20
2007,04,09,15,28,24.50
2007,04,09,15,29,27.20
2007,04,09,15,30,24.90
2007,04,09,15,31,27.00
2007,04,09,15,32,27.80
2007,04,09,15,33,30.10
2007,04,09,15,34,27.30
2007,04,09,15,35,28.50
2007,04,09,15,36,26.90
2007,04,09,15,37,23.70
2007,04,09,15,38,22.00
2007,04,09,15,39,19.70
2007,04,09,15,40,21.00
2007,04,09,15,41,23.30
2007,04,09,15,42,23.10
2007,04,09,15,43,22.50
2007,04,09,15,44,22.50
2007,04,09,15,45,24.90
2007,04,09,15,46,24.80
2007,04,09,15,47,17.00
2007,04,09,15,48,31.10
2007,04,09,15,49,28.30
2007,04,09,15,50,26.10
2007,04,09,15,51,21.90
2007,04,09,15,52,22.60
2007,04,09,15,53,32.90
2007,04,09,15,54,27.80
2007,04,09,15,55,36.60
2007,04,09,15,56,24.50
2007,04,09,15,57,30.10
2007,04,09,15,58,29.60
2007,04,09,15,59,25.80
2007,04,09,16,00,24.20
2007,04,09,16,01,13.30
2007,04,09,16,02,15.80
2007,04,09,16,03,19.30
2007,04,09,16,04,25.60
2007,04,09,16,05,22.10
2007,04,09,16,06,14.80
2007,04,09,16,07,19.20
2007,04,09,16,08,15.20
2007,04,09,16,09,17.50
2007,04,09,16,10,14.40
2007,04,09,16,11,9.50
2007,04,09,16,12,13.30
2007,04,09,16,13,11.80
2007,04,09,16,14,13.90
2007,04,09,16,15,15.00
2007,04,09,16,16,13.90
2007,04,09,16,17,19.10
2007,04,09,16,18,9.20
2007,04,09,16,19,16.90
2007,04,09,16,20,19.20
2007,04,09,16,21,16.70
2007,04,09,16,22,15.90
2007,04,09,16,23,17.10
2007,04,09,16,24,19.10
2007,04,09,16,25,20.70
2007,04,09,16,26,21.20
2007,04,09,16,27,12.50
2007,04,09,16,28,18.30
2007,04,09,16,29,22.40
2007,04,09,16,30,23.20
2007,04,09,16,31,26.40
2007,04,09,16,32,18.10
2007,04,09,16,33,14.10
2007,04,09,16,34,21.60
2007,04,09,16,35,17.40
2007,04,09,16,36,22.60
2007,04,09,16,37,25.30
2007,04,09,16,38,14.70
2007,04,09,16,39,17.40
2007,04,09,16,40,8.90
2007,04,09,16,41,18.20
2007,04,09,16,42,16.40
2007,04,09,16,43,19.10
2007,04,09,16,44,16.70
2007,04,09,16,45,23.40
2007,04,09,16,46,25.40
2007,04,09,16,47,10.20
2007,04,09,16,48,24.00
2007,04,09,16,49,20.50
2007,04,09,16,50,23.20
2007,04,09,16,51,20.20
2007,04,09,16,52,19.60
2007,04,09,16,53,16.30
2007,04,09,16,54,20.20
2007,04,09,16,55,18.90
2007,04,09,16,56,24.00
2007,04,09,16,57,20.70
2007,04,09,16,58,24.90
2007,04,09,16,59,27.80
2007,04,09,17,00,17.70
2007,04,09,17,01,21.60
2007,04,09,17,02,23.40
2007,04,09,17,03,19.60
2007,04,09,17,04,22.70
2007,04,09,17,05,20.00
2007,04,09,17,06,13.00
2007,04,09,17,07,15.40
2007,04,09,17,08,11.10
2007,04,09,17,09,13.00
2007,04,09,17,10,15.20
2007,04,09,17,11,12.90
2007,04,09,17,12,15.10
2007,04,09,17,13,21.30
2007,04,09,17,14,18.60
2007,04,09,17,15,23.40
2007,04,09,17,16,15.60
2007,04,09,17,17,16.30
2007,04,09,17,18,24.90
2007,04,09,17,19,20.40
2007,04,09,17,20,21.00
2007,04,09,17,21,30.20
2007,04,09,17,22,22.00
2007,04,09,17,23,15.80
2007,04,09,17,24,19.80
2007,04,09,17,25,27.70
2007,04,09,17,26,14.90
2007,04,09,17,27,23.70
2007,04,09,17,28,18.00
2007,04,09,17,29,18.50
2007,04,09,17,30,22.10
2007,04,09,17,31,20.70
2007,04,09,17,32,24.80